Essaim E12

operational
NORAD ID: 28497 Int'l Des: 2004-049 Owner: CNES/DGA Country: F
LEOCIRCULARRETROGRADE

Essaim E12について

説明を読み込み中...

リアルタイム位置

3D地球を読み込み中...

次回通過

高度履歴

Altitude vs Time

uPlot chart will show altitude changes over time

軌道要素

1 28497U 04049F 26063.11048769 .00002093 00000-0 23552-3 0 9994
2 28497 98.2683 306.0679 0000577 49.1778 310.9487 14.87841191143839
Epoch: Mar 4, 2026 • Age: 23 hours

現在のステータス

高度 607.2 km
速度 7.56 km/s
衛星直下点 16.82°N, 14.52°W
打ち上げ日 Dec 18, 2004
運用期間 21.2 years
タイプ other

技術仕様

分類 Payload
質量 119.00 kg
乾燥質量 114.00 kg
総質量 119.00 kg
長さ 0.60 m
直径 0.60 m
スパン 1.00 m
形状 Box + Pan
製造者 EADSB
バスタイプ Myriade
フェーズステータス In Orbit
所有者/国 CNES/DGA/F

大規模コンステレーション

Loading constellations...